Date String (YYYY-MM-DD hh:mm:ss) UTC,Instrument flags,Ambient pressure (hPa),Sample flow (lpm),Bypass flow (lpm),Sample temperature (°C),Ambient temperature (°C),ASC tube jacket temperature (°C),LED temperature (°C),Box temperature (°C),Sample RH (%),Span deviation,Mass concentration (μg/m³),Mass concentration (μg/m³),Mass concentration (μg/m³)
DateTimeUTC,F1_M11,P_M11,Q1_M11,Q2_M11,T1_M11,T2_M11,T3_M11,T4_M11,T5_M11,U1_M11,ZSPAN_M11,X0_M11,X2_M11,X1_M11
2022-02-19 03:00:00,,0830.1,5.00,0.00,22.7,22.1,00.0,31.7,24.4,08.6,0000.0,0002.96,0000.78,0000.54
2022-02-19 03:01:00,,0830.1,5.00,0.00,22.6,22.0,00.0,31.7,24.3,08.6,0000.0,0002.93,0000.80,0000.53
2022-02-19 03:02:00,,0830.2,5.00,0.00,22.6,22.0,00.0,31.7,24.3,08.8,0000.0,0002.43,0000.81,0000.53
2022-02-19 03:03:00,,0830.2,5.00,0.00,22.6,21.9,00.0,31.7,24.4,08.7,0000.0,0001.48,0000.80,0000.54
2022-02-19 03:04:00,,0830.2,5.00,0.00,22.6,22.0,00.0,31.7,24.4,08.8,0000.0,0001.46,0000.79,0000.54
2022-02-19 03:05:00,,0830.3,5.00,0.00,22.7,22.0,00.0,31.7,24.4,08.9,0000.0,0001.53,0000.81,0000.55
2022-02-19 03:06:00,,0830.2,5.00,0.00,22.7,22.0,00.0,31.7,24.4,08.8,0000.0,0001.54,0000.81,0000.55
2022-02-19 03:07:00,,0830.2,5.01,0.00,22.6,22.0,00.0,31.7,24.4,08.7,0000.0,0001.52,0000.79,0000.54
2022-02-19 03:08:00,,0830.2,5.00,0.00,22.6,22.0,00.0,31.7,24.3,08.7,0000.0,0001.45,0000.76,0000.53
2022-02-19 03:09:00,,0830.2,5.00,0.00,22.6,22.0,00.0,31.6,24.3,08.7,0000.0,0001.34,0000.73,0000.52
2022-02-19 03:10:00,,0830.3,4.99,0.00,22.6,21.9,00.0,31.6,24.3,08.7,0000.0,0001.31,0000.71,0000.51
2022-02-19 03:11:00,,0830.3,5.00,0.00,22.5,21.8,00.0,31.6,24.2,08.7,0000.0,0001.32,0000.71,0000.51
2022-02-19 03:12:00,,0830.3,5.01,0.00,22.5,21.8,00.0,31.6,24.2,08.8,0000.0,0001.37,0000.74,0000.51
2022-02-19 03:13:00,,0830.3,5.01,0.00,22.5,21.9,00.0,31.6,24.2,08.9,0000.0,0001.36,0000.74,0000.51
2022-02-19 03:14:00,,0830.3,4.99,0.00,22.5,21.9,00.0,31.6,24.3,08.8,0000.0,0001.39,0000.74,0000.51
2022-02-19 03:15:00,,0830.3,5.01,0.00,22.5,21.9,00.0,31.6,24.3,08.7,0000.0,0001.40,0000.75,0000.50
2022-02-19 03:16:00,,0830.4,5.00,0.00,22.5,21.9,00.0,31.6,24.3,08.8,0000.0,0001.29,0000.73,0000.51
2022-02-19 03:17:00,,0830.4,5.00,0.00,22.6,22.0,00.0,31.6,24.3,08.8,0000.0,0001.17,0000.71,0000.51
2022-02-19 03:18:00,,0830.4,5.00,0.00,22.6,22.0,00.0,31.6,24.4,08.7,0000.0,0001.19,0000.72,0000.51
2022-02-19 03:19:00,,0830.4,5.01,0.00,22.6,22.0,00.0,31.6,24.4,08.7,0000.0,0001.30,0000.74,0000.53
2022-02-19 03:20:00,,0830.4,5.00,0.00,22.6,22.0,00.0,31.6,24.4,08.7,0000.0,0001.35,0000.77,0000.55
2022-02-19 03:21:00,,0830.4,4.99,0.00,22.6,22.0,00.0,31.6,24.3,08.7,0000.0,0001.40,0000.80,0000.57
2022-02-19 03:22:00,,0830.4,5.00,0.00,22.6,22.0,00.0,31.6,24.4,08.7,0000.0,0001.39,0000.81,0000.58
2022-02-19 03:23:00,,0830.4,5.00,0.00,22.6,22.1,00.0,31.6,24.4,08.7,0000.0,0001.30,0000.78,0000.59
2022-02-19 03:24:00,,0830.4,5.00,0.00,22.7,22.1,00.0,31.6,24.5,08.6,0000.0,0001.23,0000.76,0000.58
2022-02-19 03:25:00,,0830.4,5.00,0.00,22.7,22.2,00.0,31.6,24.5,08.7,0000.0,0001.18,0000.75,0000.58
2022-02-19 03:26:00,,0830.4,5.01,0.00,22.7,22.2,00.0,31.6,24.5,08.7,0000.0,0001.21,0000.76,0000.59
2022-02-19 03:27:00,,0830.4,5.00,0.00,22.7,22.2,00.0,31.6,24.6,08.6,0000.0,0001.21,0000.76,0000.58
2022-02-19 03:28:00,,0830.4,4.99,0.00,22.8,22.2,00.0,31.6,24.6,08.6,0000.0,0001.16,0000.74,0000.59
2022-02-19 03:29:00,,0830.4,5.01,0.00,22.8,22.3,00.0,31.7,24.6,08.5,0000.0,0001.14,0000.74,0000.59
2022-02-19 03:30:00,,0830.4,5.01,0.00,22.8,22.3,00.0,31.7,24.6,08.5,0000.0,0001.04,0000.73,0000.57
2022-02-19 03:31:00,,0830.4,4.99,0.00,22.8,22.2,00.0,31.7,24.6,08.5,0000.0,0001.13,0000.74,0000.55
2022-02-19 03:32:00,,0830.4,5.00,0.00,22.8,22.2,00.0,31.7,24.6,08.6,0000.0,0001.18,0000.74,0000.54
2022-02-19 03:33:00,,0830.4,5.00,0.00,22.8,22.2,00.0,31.7,24.6,08.6,0000.0,0001.23,0000.75,0000.54
2022-02-19 03:34:00,,0830.4,5.01,0.00,22.8,22.2,00.0,31.7,24.5,08.6,0000.0,0001.18,0000.72,0000.54
2022-02-19 03:35:00,,0830.4,5.00,0.00,22.8,22.1,00.0,31.7,24.5,08.6,0000.0,0001.18,0000.73,0000.54
2022-02-19 03:36:00,,0830.4,5.00,0.00,22.7,22.1,00.0,31.7,24.5,08.7,0000.0,0001.27,0000.76,0000.54
2022-02-19 03:37:00,,0830.3,5.00,0.00,22.7,22.1,00.0,31.7,24.5,08.7,0000.0,0001.22,0000.74,0000.53
2022-02-19 03:38:00,,0830.3,5.00,0.00,22.7,22.1,00.0,31.7,24.6,08.6,0000.0,0001.26,0000.75,0000.53
2022-02-19 03:39:00,,0830.3,5.00,0.00,22.8,22.2,00.0,31.7,24.6,08.6,0000.0,0001.86,0000.77,0000.53
2022-02-19 03:40:00,,0830.4,5.00,0.00,22.8,22.2,00.0,31.7,24.6,08.7,0000.0,0001.91,0000.80,0000.54
2022-02-19 03:41:00,,0830.4,5.00,0.00,22.8,22.1,00.0,31.7,24.5,08.7,0000.0,0002.56,0000.82,0000.57
2022-02-19 03:42:00,,0830.4,5.00,0.00,22.7,22.0,00.0,31.7,24.4,08.7,0000.0,0002.94,0000.85,0000.59
2022-02-19 03:43:00,,0830.4,5.00,0.00,22.6,22.0,00.0,31.7,24.3,08.6,0000.0,0002.89,0000.86,0000.60
2022-02-19 03:44:00,,0830.4,4.99,0.00,22.6,21.9,00.0,31.7,24.2,08.7,0000.0,0002.99,0000.85,0000.60
2022-02-19 03:45:00,,0830.4,5.00,0.00,22.5,21.8,00.0,31.7,24.1,08.7,0000.0,0003.07,0000.85,0000.60
2022-02-19 03:46:00,,0830.4,5.00,0.00,22.5,21.7,00.0,31.6,24.1,08.7,0000.0,0003.17,0000.89,0000.61
2022-02-19 03:47:00,,0830.4,5.00,0.00,22.4,21.7,00.0,31.6,24.1,08.7,0000.0,0003.12,0000.87,0000.62
2022-02-19 03:48:00,,0830.4,5.00,0.00,22.4,21.6,00.0,31.6,24.1,08.8,0000.0,0003.10,0000.87,0000.62
2022-02-19 03:49:00,,0830.6,5.00,0.00,22.4,21.7,00.0,31.6,24.1,08.8,0000.0,0003.10,0000.88,0000.63
2022-02-19 03:50:00,,0830.3,5.01,0.00,22.4,21.7,00.0,31.6,24.1,08.8,0000.0,0002.51,0000.87,0000.65
2022-02-19 03:51:00,,0830.6,4.99,0.00,22.4,21.7,00.0,31.5,24.1,08.7,0000.0,0002.47,0000.86,0000.65
2022-02-19 03:52:00,,0830.4,5.00,0.00,22.4,21.6,00.0,31.5,24.0,08.7,0000.0,0001.81,0000.83,0000.63
2022-02-19 03:53:00,,0830.5,4.99,0.00,22.3,21.6,00.0,31.5,24.0,08.8,0000.0,0001.45,0000.82,0000.62
2022-02-19 03:54:00,,0830.4,5.00,0.00,22.3,21.6,00.0,31.5,24.0,08.8,0000.0,0001.53,0000.84,0000.63
2022-02-19 03:55:00,,0830.5,5.00,0.00,22.3,21.6,00.0,31.5,24.0,08.7,0000.0,0001.42,0000.85,0000.64
2022-02-19 03:56:00,,0830.5,5.00,0.00,22.3,21.6,00.0,31.5,23.9,08.7,0000.0,0001.32,0000.84,0000.63
2022-02-19 03:57:00,,0830.5,5.02,0.00,22.3,21.6,00.0,31.4,24.0,08.9,0000.0,0001.28,0000.83,0000.63
2022-02-19 03:58:00,,0830.5,5.01,0.00,22.3,21.6,00.0,31.4,24.0,08.8,0000.0,0001.31,0000.86,0000.65
2022-02-19 03:59:00,,0830.5,5.00,0.00,22.2,21.5,00.0,31.4,23.9,08.8,0000.0,0001.58,0000.91,0000.66
